ELFIN-B (43616 NORAD) Tracking and Keplerian Element Data

This shows tracking and keplerian element data for the satellite.

Feedback or suggestion? Click here.




ElementValue
Catalog43616
NameELFIN-B
Epoch Orbit22737
Epoch Day269.86589225
Epoch Year2022
RAAN144.2487
Inclination92.9961
Eccentricity0.0003814
Argument of Perigee205.1506
Mean Anonmoly154.9604
Mean Motion16.15055301
Decay Rate0.01507014
L11 43616U 18070D 22269.86589225 .01507014 18422-2 11970-2 0 9999
L22 43616 92.9961 144.2487 0003814 205.1506 154.9604 16.15055301227370



Live tracking and technical data element details for ELFIN-B (NORAD 43616). ELFIN-B can be tracked NOW for your location showing map with azimuth and elevation plus other details from your city location.







IsCatalogInMostPopularTable: catalog: 43616, numindb: 465
Update: records affected: 1



GetName: 43616 ELFIN-B

Hit Count: updated at: Thu, 23 Jan 2025 18:16:00 GMT